[[{"header":{"parameterUnit":"m.s-1","parameterCategory":1,"la1":30.2991,"la2":30.254,"lo1":-89.0895,"lo2":-89.0444,"dy":0.0017,"dx":0.0017,"nx":28,"ny":28,"refTime":"2025-12-13T03:00:00:Z","depth":0,"parameterNumber":2,"parameterNumberName":"U-component_of_WINDS"},"data":[0,0,0,0,0,0,0,0,0,0,0,0,0,0,0,0,0,0,0,0,0,0,0,0,0,0,0,0,0,0,0,0,0,0,0,0,0,0,0,0,0,0,0,0,0,0,0,0,0,0,0,0,0,0,0,0,0,0,-1.3702,-1.3703,0,-1.3715,-1.3715,-1.3715,-1.3664,-1.3662,-1.3661,-1.3659,-1.3673,-1.3674,-1.3676,0,0,0,0,0,0,0,0,0,0,0,0,0,-1.3637,-1.3638,-1.3702,-1.3703,-1.3703,-1.3715,-1.3715,-1.3715,-1.3664,-1.3662,-1.366,-1.3658,-1.3672,-1.3674,-1.3676,0,0,0,0,0,0,0,0,0,0,0,0,0,-1.3659,-1.3639,-1.3702,-1.3679,-1.3677,-1.3715,-1.3715,-1.3715,-1.3664,-1.3662,-1.366,-1.3658,-1.3671,-1.3674,-1.3677,-1.3739,0,0,-1.3685,-1.3686,0,0,0,0,0,0,0,0,-1.3658,-1.3661,-1.3682,-1.368,-1.3678,-1.3685,-1.3697,-1.3723,-1.3665,-1.3669,-1.3659,-1.3656,-1.3679,-1.3681,-1.3688,-1.3739,-1.374,-1.3685,-1.3687,-1.3688,-1.3688,0,0,0,0,0,0,0,-1.3656,-1.366,-1.3707,-1.3682,-1.368,-1.3668,-1.3669,-1.3701,-1.3687,-1.3668,-1.3665,-1.3667,-1.3677,-1.3686,-1.3688,-1.374,-1.3685,-1.3687,-1.3689,-1.369,-1.3845,-1.3847,0,0,0,0,0,0,-1.3658,-1.366,-1.3707,-1.3708,-1.3662,-1.3671,-1.3672,-1.3685,-1.3686,-1.3684,-1.3669,-1.3664,-1.3682,-1.3685,-1.3688,-1.3761,-1.3688,-1.369,-1.3692,-1.3842,-1.3845,-1.3848,0,0,0,0,0,0,-1.3656,-1.3662,-1.3706,-1.3683,-1.3687,-1.3675,-1.369,-1.3687,-1.3695,-1.3686,-1.3683,-1.368,-1.368,-1.3684,-1.3727,-1.3761,-1.3691,-1.3694,-1.3839,-1.3843,-1.3847,-1.3908,0,0,0,0,0,0,-1.3655,-1.3662,-1.3685,-1.3684,-1.3689,-1.3744,-1.3692,-1.3689,-1.37,-1.3694,-1.3696,-1.3694,-1.3679,-1.3723,-1.3729,-1.3763,-1.3696,-1.3836,-1.3841,-1.3846,-1.3903,-1.3913,-1.3922,0,0,0,0,0,-1.3652,-1.3701,-1.3686,-1.3692,-1.3717,-1.3746,-1.3749,-1.3731,-1.3703,-1.3726,-1.3721,-1.3694,-1.3757,-1.3728,-1.3735,-1.377,-1.3834,-1.384,-1.3845,-1.3898,-1.3911,-1.3922,0,0,0,0,0,0,-1.3706,-1.37,-1.3683,-1.3733,-1.3741,-1.3737,-1.3765,-1.3745,-1.376,-1.3754,-1.3731,-1.3732,-1.3779,-1.3779,-1.3747,-1.3831,-1.3791,-1.3798,-1.3829,-1.3841,-1.3851,-1.3849,-1.3698,0,0,0,0,0,-1.3724,-1.3748,-1.3742,-1.3786,-1.3791,-1.3778,-1.379,-1.3775,-1.3782,-1.3785,-1.3783,-1.3791,-1.3812,-1.3827,-1.3846,-1.3904,-1.3904,-1.3932,-1.3941,-1.3949,-1.3955,-1.3987,-1.3999,-1.3867,-1.3867,-1.3867,0,0,-1.376,-1.376,-1.3776,-1.3797,-1.3801,-1.3827,-1.3781,-1.381,-1.3829,-1.3789,-1.3829,-1.3828,-1.3836,-1.3886,-1.3908,-1.3888,-1.3993,-1.3957,-1.3963,-1.3965,-1.3994,-1.4007,-1.4018,-1.3871,-1.387,-1.3869,0,0,-1.3839,-1.3842,-1.3879,-1.3885,-1.3892,-1.3884,-1.3893,-1.3894,-1.3892,-1.3931,-1.3903,-1.3926,-1.3964,-1.3971,-1.3979,-1.4065,-1.4042,-1.4073,-1.4123,-1.4154,-1.4164,-1.4174,-1.4204,-1.4216,-1.4079,-1.4079,-1.4079,0,-1.3883,-1.3921,-1.3901,-1.3933,-1.3943,-1.391,-1.3949,-1.3955,-1.3969,-1.3977,-1.3954,-1.4002,-1.4005,-1.4057,-1.4078,-1.4086,-1.4097,-1.4071,-1.4165,-1.4173,-1.4182,-1.4211,-1.4222,-1.4083,-1.4082,-1.4082,-1.4082,0,-1.3975,-1.4002,-1.4032,-1.4045,-1.406,-1.4095,-1.4082,-1.4099,-1.4084,-1.4079,-1.4121,-1.4124,-1.4144,-1.4156,-1.4141,-1.4206,-1.4193,-1.4168,-1.4127,-1.4198,-1.4225,-1.4236,-1.4088,-1.4087,-1.4086,-1.4085,0,0,-1.4085,-1.409,-1.4101,-1.4108,-1.4115,-1.4135,-1.417,-1.419,-1.4205,-1.4217,-1.4246,-1.428,-1.4257,-1.4267,-1.4254,-1.4281,-1.435,-1.4253,-1.4253,-1.427,-1.4423,-1.4441,-1.4454,-1.4336,-1.4338,-1.4339,-1.4422,0,-1.4162,-1.422,-1.4206,-1.4264,-1.4289,-1.426,-1.429,-1.4299,-1.4296,-1.4317,-1.4314,-1.4339,-1.4307,-1.4313,-1.4339,-1.4336,-1.438,-1.433,-1.4362,-1.4364,-1.4359,-1.4468,-1.4486,-1.4564,-1.4432,-1.4434,-1.4435,0,-1.4259,-1.4275,-1.4336,-1.4341,-1.4351,-1.4378,-1.4396,-1.4417,-1.4427,-1.4423,-1.4436,-1.4418,-1.4454,-1.4414,-1.4464,-1.443,-1.4443,-1.4444,-1.4447,-1.4447,-1.4402,-1.4471,-1.4588,-1.4599,-1.4452,-1.4451,-1.4449,0,-1.4332,-1.4369,-1.4411,-1.4418,-1.4424,-1.4445,-1.4449,-1.4456,-1.447,-1.4487,-1.4495,-1.4516,-1.4527,-1.4545,-1.4534,-1.4506,-1.4585,-1.4544,-1.4583,-1.4583,-1.4599,-1.4598,-1.4719,-1.461,-1.461,-1.461,-1.461,0,-1.4419,-1.4457,-1.4444,-1.4469,-1.4512,-1.4496,-1.4539,-1.454,-1.4548,-1.4574,-1.4551,-1.4576,-1.456,-1.4585,-1.4577,-1.4619,-1.4625,-1.4623,-1.462,-1.4624,-1.4624,-1.463,-1.4624,-1.4613,-1.4612,-1.4612,-1.4611,0,-1.4507,-1.4499,-1.4543,-1.4547,-1.4549,-1.458,-1.4584,-1.4608,-1.4605,-1.4638,-1.4645,-1.464,-1.4667,-1.4659,-1.4689,-1.4684,-1.4737,-1.4728,-1.4734,-1.4731,-1.477,-1.4766,-1.4898,-1.4915,-1.4797,-1.4798,-1.4799,0,-1.4562,-1.4591,-1.4599,-1.4614,-1.462,-1.4646,-1.466,-1.4647,-1.4663,-1.4678,-1.4701,-1.4727,-1.4746,-1.4793,-1.4792,-1.4815,-1.4806,-1.4851,-1.4809,-1.4813,-1.4806,-1.4803,-1.4806,-1.4858,-1.486,-1.4861,-1.4862,0,-1.466,-1.4656,-1.4677,-1.4698,-1.4716,-1.4732,-1.4746,-1.476,-1.4748,-1.4768,-1.4796,-1.4812,-1.4843,-1.4869,-1.4891,-1.4896,-1.4877,-1.4875,-1.4885,-1.4889,-1.489,-1.489,-1.4755,-1.4872,-1.4871,-1.487,-1.4869,-1.4869,-1.4732,-1.4757,-1.4767,-1.4792,-1.4802,-1.4816,-1.4839,-1.484,-1.4863,-1.4887,-1.4879,-1.4912,-1.4924,-1.4951,-1.4959,-1.4985,-1.4968,-1.4983,-1.4986,-1.499,-1.4994,-1.4888,-1.499,-1.4989,-1.4989,-1.4989,-1.4989,0,-1.4828,-1.4834,-1.4858,-1.4878,-1.4899,-1.4881,-1.4896,-1.4914,-1.4943,-1.4956,-1.4977,-1.501,-1.5036,-1.5039,-1.5064,-1.5085,-1.5077,-1.5092,-1.5089,-1.5091,-1.5009,-1.4997,-1.5098,-1.5098,-1.5098,-1.5098,-1.5098,-1.5098,-1.488,-1.4922,-1.4919,-1.4966,-1.4972,-1.5003,-1.5014,-1.5028,-1.5038,-1.5076,-1.5098,-1.51,-1.511,-1.5136,-1.5159,-1.516,-1.517,-1.5188,-1.5185,-1.5107,-1.5096,-1.5086,-1.5075,-1.519,-1.519,-1.5264,-1.5265,-1.5266]},{"header":{"parameterUnit":"m.s-1","parameterCategory":1,"la1":30.2991,"la2":30.254,"lo1":-89.0895,"lo2":-89.0444,"dy":0.0017,"dx":0.0017,"nx":28,"ny":28,"refTime":"2025-12-13T03:00:00:Z","depth":0,"parameterNumber":3,"parameterNumberName":"V-component_of_WINDS"},"data":[0,0,0,0,0,0,0,0,0,0,0,0,0,0,0,0,0,0,0,0,0,0,0,0,0,0,0,0,0,0,0,0,0,0,0,0,0,0,0,0,0,0,0,0,0,0,0,0,0,0,0,0,0,0,0,0,0,0,1.0684,1.0685,0,1.0778,1.0779,1.078,1.0866,1.0867,1.0868,1.0869,1.0961,1.0963,1.0964,0,0,0,0,0,0,0,0,0,0,0,0,0,1.0578,1.0579,1.0684,1.0685,1.0687,1.0777,1.0779,1.078,1.0865,1.0867,1.0868,1.0869,1.0961,1.0962,1.0964,0,0,0,0,0,0,0,0,0,0,0,0,0,1.0642,1.058,1.0684,1.074,1.0746,1.0777,1.0779,1.078,1.0865,1.0867,1.0868,1.087,1.096,1.0962,1.0964,1.0946,0,0,1.0971,1.0972,0,0,0,0,0,0,0,0,1.0639,1.0646,1.0731,1.0737,1.0743,1.0812,1.0775,1.0836,1.0865,1.082,1.0869,1.0871,1.091,1.0916,1.093,1.0951,1.0955,1.0971,1.0973,1.0974,1.0974,0,0,0,0,0,0,0,1.0634,1.0643,1.0721,1.0732,1.074,1.076,1.0771,1.0787,1.0855,1.0824,1.083,1.084,1.0914,1.0928,1.0933,1.0956,1.0971,1.0973,1.0975,1.0976,1.0967,1.0966,0,0,0,0,0,0,1.0621,1.0638,1.0718,1.0724,1.0694,1.0761,1.0773,1.0788,1.0855,1.0867,1.0839,1.0844,1.0923,1.093,1.0937,1.0921,1.0974,1.0976,1.0977,1.0969,1.0967,1.0965,0,0,0,0,0,0,1.0619,1.0628,1.0714,1.0683,1.0696,1.0761,1.0777,1.0789,1.0804,1.0866,1.0879,1.0841,1.0925,1.0934,1.0944,1.0925,1.0977,1.0979,1.097,1.0968,1.0966,1.0888,0,0,0,0,0,0,1.0615,1.0626,1.0621,1.0682,1.0697,1.0721,1.0776,1.079,1.0808,1.0815,1.0872,1.0883,1.0927,1.094,1.0946,1.0929,1.098,1.0972,1.0969,1.0967,1.0893,1.0884,1.0876,0,0,0,0,0,1.0611,1.0594,1.062,1.0629,1.0692,1.0719,1.0728,1.078,1.0806,1.08,1.0841,1.0881,1.0926,1.094,1.0948,1.0931,1.0974,1.097,1.0967,1.0897,1.0886,1.0876,0,0,0,0,0,0,1.0527,1.0603,1.0633,1.0635,1.067,1.0734,1.0729,1.0766,1.0794,1.0799,1.0862,1.0874,1.0877,1.0905,1.092,1.0918,1.0955,1.0953,1.09,1.0889,1.0881,1.0875,1.0982,0,0,0,0,0,1.0509,1.0527,1.0592,1.0588,1.0604,1.0663,1.0677,1.0714,1.0752,1.0767,1.0809,1.0843,1.0866,1.0879,1.0903,1.0897,1.0911,1.0889,1.0881,1.0873,1.0871,1.0871,1.0862,1.0953,1.0954,1.0954,0,0,1.0472,1.0516,1.0523,1.0572,1.0604,1.0619,1.0675,1.0689,1.0701,1.0769,1.0782,1.0813,1.0856,1.0858,1.0862,1.0882,1.0849,1.0869,1.0863,1.0865,1.0866,1.0858,1.085,1.0951,1.0952,1.0952,0,0,1.0413,1.0447,1.0448,1.0479,1.0527,1.0566,1.0566,1.0624,1.0648,1.0662,1.0713,1.0728,1.0765,1.0794,1.0813,1.0765,1.0803,1.077,1.0726,1.0725,1.0718,1.0712,1.0695,1.0689,1.0768,1.0767,1.0767,0,1.036,1.0387,1.0444,1.0455,1.0476,1.0539,1.054,1.0567,1.0619,1.0631,1.0653,1.0702,1.0735,1.0745,1.0733,1.0747,1.0749,1.0765,1.0715,1.0709,1.0704,1.0689,1.0683,1.0763,1.0764,1.0764,1.0764,0,1.0321,1.0338,1.0333,1.0384,1.0403,1.0409,1.0466,1.0479,1.0514,1.0551,1.0564,1.0606,1.064,1.0645,1.0679,1.066,1.0672,1.0703,1.0742,1.0691,1.0678,1.0672,1.0757,1.0759,1.076,1.0761,0,0,1.0212,1.0294,1.0291,1.0315,1.0372,1.0387,1.0395,1.043,1.044,1.0473,1.0482,1.0512,1.0542,1.0563,1.0601,1.06,1.056,1.0632,1.0634,1.0618,1.0543,1.0519,1.0512,1.0585,1.0584,1.0583,1.0539,0,1.0163,1.0184,1.0235,1.024,1.0257,1.0317,1.0325,1.036,1.0395,1.0414,1.0451,1.0472,1.0509,1.0523,1.0525,1.0564,1.0546,1.0568,1.0594,1.0594,1.0583,1.0505,1.048,1.0437,1.0535,1.0534,1.0533,0,1.0108,1.014,1.0147,1.0204,1.0213,1.0219,1.0255,1.0272,1.0313,1.0338,1.0363,1.0405,1.0417,1.0452,1.0469,1.0483,1.0497,1.0518,1.0517,1.0523,1.0561,1.0509,1.0424,1.0418,1.0525,1.0526,1.0527,0,1.0029,1.0073,1.0084,1.0102,1.0168,1.0171,1.0199,1.0242,1.0259,1.029,1.0302,1.0333,1.035,1.0372,1.0421,1.0442,1.0433,1.0472,1.0454,1.0453,1.0451,1.045,1.0368,1.0457,1.0457,1.0457,1.0457,0,0.997,0.9972,1.0049,1.0055,1.006,1.0118,1.012,1.0153,1.019,1.0204,1.0256,1.0267,1.0331,1.0349,1.0387,1.0396,1.0403,1.0423,1.0434,1.0419,1.0417,1.043,1.0434,1.0455,1.0456,1.0456,1.0456,0,0.9883,0.9935,0.995,1.0012,1.0027,1.0028,1.008,1.0088,1.0126,1.0142,1.0149,1.0208,1.0232,1.0283,1.032,1.0346,1.0346,1.0363,1.0332,1.0339,1.0318,1.032,1.0242,1.0235,1.0327,1.0326,1.0325,0,0.9842,0.9846,0.9908,0.9922,0.9948,0.9968,0.9987,1.0044,1.0061,1.0108,1.011,1.0138,1.0165,1.02,1.0245,1.0274,1.0294,1.0264,1.0298,1.0284,1.0295,1.0294,1.0295,1.0257,1.0256,1.0255,1.0254,0,0.9765,0.979,0.9816,0.985,0.9871,0.9901,0.9933,0.994,1.0005,1.0021,1.0047,1.0067,1.0106,1.0134,1.017,1.0197,1.0236,1.0243,1.024,1.0226,1.0209,1.0219,1.0313,1.0244,1.0245,1.0246,1.0247,1.0247,0.9701,0.9707,0.9752,0.9779,0.9809,0.9838,0.9849,0.9889,0.9912,0.9949,0.9981,1.0004,1.0045,1.0097,1.0122,1.0141,1.016,1.0156,1.0155,1.0154,1.0148,1.0205,1.0147,1.0147,1.0148,1.0148,1.0148,0,0.9627,0.9659,0.9683,0.9727,0.9748,0.9784,0.9821,0.9836,0.9856,0.9892,0.9917,0.9947,0.9974,1.0021,1.0052,1.0058,1.0076,1.0064,1.0065,1.0071,1.0128,1.0128,1.0049,1.0049,1.0049,1.0049,1.0049,1.0049,0.9591,0.9604,0.9635,0.9663,0.9695,0.9719,0.9738,0.9764,0.9793,0.9825,0.9848,0.9879,0.992,0.9954,0.998,0.9994,1.0003,0.9985,1.0004,1.0057,1.0066,1.0075,1.0075,0.9986,0.9986,0.9945,0.9944,0.9944]}]]